| time (UTC) | temp F | wind direction | speed MPH | gust MPH | rain 1hr in | rain 24hr in | rain mn in | humidity % | barometer mb |
| 20260504042204 | 61 | 223 | 0.0 | 0.0 | 0.00 | 0.00 | 0.00 | 67 | 1009.9 |
| 20260504041704 | 61 | 223 | 0.0 | 2.0 | 0.00 | 0.00 | 0.00 | 66 | 1009.9 |
| 20260504040704 | 61 | 209 | 1.0 | 3.0 | 0.00 | 0.00 | 0.00 | 68 | 1009.8 |
| 20260504040205 | 60 | 209 | 2.0 | 3.0 | 0.00 | 0.00 | 0.00 | 69 | 1009.8 |
| 20260504035205 | 63 | 194 | 2.0 | 3.0 | 0.00 | 0.00 | 0.00 | 65 | 1009.6 |
| 20260504034704 | 64 | 194 | 3.0 | 3.0 | 0.00 | 0.00 | 0.00 | 63 | 1009.6 |
| 20260504034204 | 65 | 193 | 2.0 | 3.0 | 0.00 | 0.00 | 0.00 | 61 | 1009.6 |
| 20260504033204 | 67 | 193 | 2.0 | 3.0 | 0.00 | 0.00 | 0.00 | 57 | 1009.6 |
| 20260504032205 | 69 | 211 | 1.0 | 2.0 | 0.00 | 0.00 | 0.00 | 54 | 1009.6 |
| 20260504031704 | 70 | 211 | 1.0 | 2.0 | 0.00 | 0.00 | 0.00 | 51 | 1009.5 |
| 20260504031205 | 71 | 211 | 0.0 | 1.0 | 0.00 | 0.00 | 0.00 | 51 | 1009.6 |
| 20260504030206 | 72 | 211 | 1.0 | 1.0 | 0.00 | 0.00 | 0.00 | 50 | 1009.6 |
| 20260504025704 | 72 | 211 | 1.0 | 2.0 | 0.00 | 0.00 | 0.00 | 49 | 1009.6 |
| 20260504025205 | 73 | 211 | 2.0 | 3.0 | 0.00 | 0.00 | 0.00 | 49 | 1009.7 |
| 20260504024703 | 74 | 211 | 2.0 | 3.0 | 0.00 | 0.00 | 0.00 | 47 | 1009.7 |
| 20260504024204 | 76 | 212 | 2.0 | 3.0 | 0.00 | 0.00 | 0.00 | 42 | 1009.7 |
| 20260504023706 | 77 | 191 | 2.0 | 3.0 | 0.00 | 0.00 | 0.00 | 39 | 1009.8 |
| 20260504023206 | 78 | 231 | 2.0 | 3.0 | 0.00 | 0.00 | 0.00 | 37 | 1009.8 |
| 20260504022704 | 78 | 272 | 1.0 | 3.0 | 0.00 | 0.00 | 0.00 | 35 | 1009.9 |
| 20260504022204 | 78 | 288 | 2.0 | 3.0 | 0.00 | 0.00 | 0.00 | 37 | 1010.0 |
| 20260504021203 | 78 | 286 | 2.0 | 3.0 | 0.00 | 0.00 | 0.00 | 36 | 1010.0 |
| 20260504020704 | 78 | 288 | 2.0 | 3.0 | 0.00 | 0.00 | 0.00 | 36 | 1010.0 |
| 20260504020203 | 78 | 289 | 3.0 | 3.0 | 0.00 | 0.00 | 0.00 | 34 | 1010.1 |
| 20260504014704 | 79 | 281 | 2.0 | 6.0 | 0.00 | 0.00 | 0.00 | 33 | 1010.2 |
| 20260504012704 | 79 | 207 | 3.0 | 5.0 | 0.00 | 0.00 | 0.00 | 35 | 1010.5 |
| 20260504012204 | 79 | 242 | 2.0 | 6.0 | 0.00 | 0.00 | 0.00 | 35 | 1010.4 |
| 20260504011704 | 79 | 211 | 3.0 | 7.0 | 0.00 | 0.00 | 0.00 | 35 | 1010.6 |
| 20260504011204 | 79 | 233 | 2.0 | 3.0 | 0.00 | 0.00 | 0.00 | 36 | 1010.6 |
| 20260504010704 | 79 | 298 | 2.0 | 3.0 | 0.00 | 0.00 | 0.00 | 35 | 1010.7 |
| 20260504010205 | 79 | 328 | 3.0 | 6.0 | 0.00 | 0.00 | 0.00 | 32 | 1010.7 |
| 20260504005206 | 79 | 273 | 3.0 | 7.0 | 0.00 | 0.00 | 0.00 | 34 | 1010.8 |
| 20260504004703 | 79 | 294 | 3.0 | 8.0 | 0.00 | 0.00 | 0.00 | 34 | 1011.0 |
| 20260504003706 | 79 | 310 | 2.0 | 8.0 | 0.00 | 0.00 | 0.00 | 34 | 1011.0 |
| 20260504003204 | 79 | 314 | 2.0 | 8.0 | 0.00 | 0.00 | 0.00 | 36 | 1011.0 |
| 20260504002704 | 79 | 290 | 4.0 | 9.0 | 0.00 | 0.00 | 0.00 | 32 | 1011.0 |
| 20260504002205 | 79 | 320 | 4.0 | 8.0 | 0.00 | 0.00 | 0.00 | 34 | 1011.1 |
| 20260504001705 | 79 | 329 | 3.0 | 9.0 | 0.00 | 0.00 | 0.00 | 35 | 1011.1 |
| 20260504000204 | 79 | 283 | 3.0 | 7.0 | 0.00 | 0.00 | 0.00 | 35 | 1011.2 |
| 20260503235204 | 79 | 293 | 2.0 | 5.0 | 0.00 | 0.00 | 0.00 | 37 | 1011.3 |
| 20260503234704 | 78 | 263 | 3.0 | 7.0 | 0.00 | 0.00 | 0.00 | 35 | 1011.3 |
| 20260503234204 | 78 | 326 | 4.0 | 6.0 | 0.00 | 0.00 | 0.00 | 35 | 1011.3 |
| 20260503233706 | 78 | 316 | 5.0 | 9.0 | 0.00 | 0.00 | 0.00 | 37 | 1011.4 |
| 20260503233203 | 78 | 340 | 5.0 | 10.0 | 0.00 | 0.00 | 0.00 | 34 | 1011.5 |
| 20260503231204 | 78 | 293 | 3.0 | 6.0 | 0.00 | 0.00 | 0.00 | 38 | 1011.7 |
| 20260503230705 | 78 | 275 | 5.0 | 8.0 | 0.00 | 0.00 | 0.00 | 40 | 1011.7 |
| 20260503230204 | 77 | 294 | 2.0 | 8.0 | 0.00 | 0.00 | 0.00 | 41 | 1011.8 |
| 20260503225704 | 77 | 281 | 3.0 | 8.0 | 0.00 | 0.00 | 0.00 | 44 | 1011.9 |
| 20260503225204 | 77 | 335 | 4.0 | 8.0 | 0.00 | 0.00 | 0.00 | 41 | 1012.0 |
| 20260503224704 | 77 | 305 | 2.0 | 7.0 | 0.00 | 0.00 | 0.00 | 41 | 1012.0 |
| 20260503224206 | 77 | 285 | 3.0 | 8.0 | 0.00 | 0.00 | 0.00 | 40 | 1012.1 |
| 20260503223203 | 77 | 245 | 3.0 | 7.0 | 0.00 | 0.00 | 0.00 | 43 | 1012.3 |
| 20260503222705 | 77 | 257 | 2.0 | 6.0 | 0.00 | 0.00 | 0.00 | 42 | 1012.4 |
| 20260503222206 | 77 | 20 | 1.0 | 3.0 | 0.00 | 0.00 | 0.00 | 44 | 1012.5 |
| 20260503221205 | 76 | 347 | 4.0 | 7.0 | 0.00 | 0.00 | 0.00 | 42 | 1012.6 |
| 20260503220205 | 76 | 265 | 3.0 | 6.0 | 0.00 | 0.00 | 0.00 | 45 | 1012.8 |
| 20260503215703 | 75 | 46 | 3.0 | 5.0 | 0.00 | 0.00 | 0.00 | 46 | 1012.8 |
| 20260503215205 | 75 | 46 | 3.0 | 6.0 | 0.00 | 0.00 | 0.00 | 44 | 1012.9 |
| 20260503214703 | 75 | 323 | 2.0 | 7.0 | 0.00 | 0.00 | 0.00 | 52 | 1013.0 |
| 20260503214205 | 74 | 346 | 4.0 | 9.0 | 0.00 | 0.00 | 0.00 | 46 | 1013.1 |
| 20260503213706 | 74 | 299 | 4.0 | 8.0 | 0.00 | 0.00 | 0.00 | 47 | 1013.1 |
| 20260503213204 | 74 | 347 | 4.0 | 9.0 | 0.00 | 0.00 | 0.00 | 48 | 1013.1 |
| 20260503212706 | 74 | 27 | 3.0 | 7.0 | 0.00 | 0.00 | 0.00 | 49 | 1013.2 |
| 20260503212204 | 74 | 11 | 5.0 | 8.0 | 0.00 | 0.00 | 0.00 | 46 | 1013.2 |
| 20260503211704 | 74 | 357 | 4.0 | 12.0 | 0.00 | 0.00 | 0.00 | 46 | 1013.2 |
| 20260503211204 | 74 | 315 | 5.0 | 9.0 | 0.00 | 0.00 | 0.00 | 45 | 1013.3 |
| 20260503210704 | 74 | 305 | 6.0 | 10.0 | 0.00 | 0.00 | 0.00 | 46 | 1013.3 |
| 20260503205704 | 74 | 350 | 6.0 | 9.0 | 0.00 | 0.00 | 0.00 | 48 | 1013.4 |
| 20260503205205 | 74 | 329 | 6.0 | 10.0 | 0.00 | 0.00 | 0.00 | 48 | 1013.3 |
| 20260503204705 | 74 | 309 | 8.0 | 12.0 | 0.00 | 0.00 | 0.00 | 46 | 1013.4 |
| 20260503203705 | 75 | 304 | 5.0 | 10.0 | 0.00 | 0.00 | 0.00 | 46 | 1013.4 |
| 20260503203204 | 75 | 332 | 5.0 | 9.0 | 0.00 | 0.00 | 0.00 | 45 | 1013.4 |
| 20260503202204 | 75 | 14 | 3.0 | 7.0 | 0.00 | 0.00 | 0.00 | 48 | 1013.4 |
| 20260503201703 | 75 | 8 | 5.0 | 9.0 | 0.00 | 0.00 | 0.00 | 46 | 1013.4 |
| 20260503201205 | 75 | 18 | 3.0 | 8.0 | 0.00 | 0.00 | 0.00 | 48 | 1013.4 |
| 20260503200706 | 75 | 23 | 2.0 | 6.0 | 0.00 | 0.00 | 0.00 | 48 | 1013.5 |
| 20260503200204 | 75 | 343 | 4.0 | 8.0 | 0.00 | 0.00 | 0.00 | 49 | 1013.6 |
| 20260503195705 | 75 | 274 | 3.0 | 7.0 | 0.00 | 0.00 | 0.00 | 52 | 1013.8 |
| 20260503195204 | 74 | 340 | 2.0 | 6.0 | 0.00 | 0.00 | 0.00 | 51 | 1013.8 |
| 20260503194704 | 74 | 307 | 5.0 | 9.0 | 0.00 | 0.00 | 0.00 | 48 | 1013.8 |
| 20260503194204 | 74 | 9 | 3.0 | 10.0 | 0.00 | 0.00 | 0.00 | 49 | 1013.8 |
| 20260503193706 | 75 | 8 | 4.0 | 8.0 | 0.00 | 0.00 | 0.00 | 49 | 1013.9 |
| 20260503193203 | 75 | 295 | 2.0 | 3.0 | 0.00 | 0.00 | 0.00 | 49 | 1014.0 |
| 20260503192704 | 75 | 318 | 2.0 | 6.0 | 0.00 | 0.00 | 0.00 | 52 | 1014.1 |
| 20260503192204 | 75 | 349 | 3.0 | 8.0 | 0.00 | 0.00 | 0.00 | 51 | 1014.1 |
| 20260503191203 | 74 | 284 | 3.0 | 6.0 | 0.00 | 0.00 | 0.00 | 48 | 1014.2 |
| 20260503190705 | 74 | 223 | 2.0 | 5.0 | 0.00 | 0.00 | 0.00 | 47 | 1014.2 |
| 20260503190204 | 74 | 264 | 4.0 | 7.0 | 0.00 | 0.00 | 0.00 | 52 | 1014.3 |
| 20260503185205 | 73 | 313 | 3.0 | 7.0 | 0.00 | 0.00 | 0.00 | 48 | 1014.3 |
| 20260503184204 | 73 | 353 | 2.0 | 5.0 | 0.00 | 0.00 | 0.00 | 52 | 1014.6 |
| 20260503183705 | 72 | 358 | 2.0 | 8.0 | 0.00 | 0.00 | 0.00 | 50 | 1014.6 |
| 20260503183204 | 72 | 11 | 3.0 | 5.0 | 0.00 | 0.00 | 0.00 | 51 | 1014.6 |
| 20260503182704 | 73 | 318 | 4.0 | 8.0 | 0.00 | 0.00 | 0.00 | 52 | 1014.6 |
| 20260503182205 | 72 | 347 | 4.0 | 5.0 | 0.00 | 0.00 | 0.00 | 54 | 1014.7 |
| 20260503181705 | 72 | 332 | 2.0 | 8.0 | 0.00 | 0.00 | 0.00 | 53 | 1014.7 |
| 20260503181204 | 72 | 315 | 2.0 | 5.0 | 0.00 | 0.00 | 0.00 | 53 | 1014.8 |
| 20260503180705 | 72 | 332 | 3.0 | 8.0 | 0.00 | 0.00 | 0.00 | 53 | 1014.8 |
| 20260503180204 | 71 | 1 | 2.0 | 3.0 | 0.00 | 0.00 | 0.00 | 51 | 1014.9 |
| 20260503175704 | 71 | 303 | 3.0 | 5.0 | 0.00 | 0.00 | 0.00 | 51 | 1014.9 |
| 20260503175205 | 71 | 320 | 3.0 | 7.0 | 0.00 | 0.00 | 0.00 | 49 | 1015.0 |
| 20260503174206 | 71 | 337 | 5.0 | 8.0 | 0.00 | 0.00 | 0.00 | 54 | 1015.1 |
| 20260503173705 | 71 | 279 | 5.0 | 8.0 | 0.00 | 0.00 | 0.00 | 54 | 1015.1 |
| 20260503173204 | 71 | 344 | 4.0 | 8.0 | 0.00 | 0.00 | 0.00 | 54 | 1015.1 |
| 20260503172704 | 71 | 283 | 1.0 | 5.0 | 0.00 | 0.00 | 0.00 | 54 | 1015.2 |
| 20260503172205 | 71 | 274 | 3.0 | 7.0 | 0.00 | 0.00 | 0.00 | 56 | 1015.2 |
| 20260503171704 | 70 | 291 | 2.0 | 7.0 | 0.00 | 0.00 | 0.00 | 56 | 1015.2 |
| 20260503171203 | 70 | 280 | 5.0 | 8.0 | 0.00 | 0.00 | 0.00 | 56 | 1015.2 |
| 20260503170705 | 70 | 327 | 3.0 | 8.0 | 0.00 | 0.00 | 0.00 | 54 | 1015.2 |
| 20260503170203 | 70 | 316 | 2.0 | 7.0 | 0.00 | 0.00 | 0.00 | 55 | 1015.3 |
| 20260503160204 | 69 | 291 | 3.0 | 6.0 | 0.00 | 0.00 | 0.00 | 58 | 1015.5 |
| 20260503150704 | 66 | 247 | 4.0 | 7.0 | 0.00 | 0.00 | 0.00 | 63 | 1015.9 |
| 20260503140205 | 56 | 253 | 1.0 | 3.0 | 0.00 | 0.00 | 0.00 | 80 | 1015.6 |
| 20260503131205 | 53 | 248 | 1.0 | 3.0 | 0.00 | 0.00 | 0.00 | 80 | 1015.4 |
| 20260503130704 | 52 | 212 | 3.0 | 7.0 | 0.00 | 0.00 | 0.00 | 82 | 1015.4 |
| 20260503130204 | 51 | 209 | 3.0 | 8.0 | 0.00 | 0.00 | 0.00 | 82 | 1015.4 |
| 20260503120205 | 51 | 228 | 1.0 | 2.0 | 0.00 | 0.00 | 0.00 | 82 | 1015.5 |
| 20260503110705 | 53 | 252 | 0.0 | 1.0 | 0.00 | 0.00 | 0.00 | 76 | 1015.4 |
| 20260503110203 | 53 | 252 | 1.0 | 2.0 | 0.00 | 0.00 | 0.00 | 77 | 1015.4 |
| 20260503090205 | 58 | 240 | 4.0 | 6.0 | 0.00 | 0.00 | 0.00 | 70 | 1015.1 |
| 20260503081204 | 54 | 279 | 0.0 | 2.0 | 0.00 | 0.00 | 0.00 | 81 | 1015.1 |
| 20260503080204 | 54 | 279 | 1.0 | 2.0 | 0.00 | 0.00 | 0.00 | 81 | 1015.0 |
| 20260503072704 | 53 | 269 | 1.0 | 2.0 | 0.00 | 0.00 | 0.00 | 83 | 1014.9 |
| 20260503072205 | 53 | 269 | 1.0 | 2.0 | 0.00 | 0.00 | 0.00 | 82 | 1014.9 |
| 20260503071704 | 53 | 269 | 2.0 | 3.0 | 0.00 | 0.00 | 0.00 | 82 | 1014.9 |
| 20260503071204 | 53 | 269 | 1.0 | 3.0 | 0.00 | 0.00 | 0.00 | 83 | 1014.9 |
| 20260503070706 | 53 | 269 | 2.0 | 3.0 | 0.00 | 0.00 | 0.00 | 83 | 1014.9 |
| 20260503070205 | 54 | 269 | 2.0 | 3.0 | 0.00 | 0.00 | 0.00 | 83 | 1015.0 |
| 20260503060204 | 56 | 300 | 2.0 | 3.0 | 0.00 | 0.00 | 0.00 | 79 | 1014.9 |
| 20260503054705 | 56 | 284 | 2.0 | 3.0 | 0.00 | 0.00 | 0.00 | 78 | 1014.8 |
| 20260503054204 | 57 | 284 | 3.0 | 3.0 | 0.00 | 0.00 | 0.00 | 78 | 1014.9 |
| 20260503053705 | 57 | 284 | 1.0 | 3.0 | 0.00 | 0.00 | 0.00 | 76 | 1014.9 |
| 20260503053204 | 57 | 284 | 2.0 | 3.0 | 0.00 | 0.00 | 0.00 | 77 | 1014.9 |
| 20260503052705 | 57 | 284 | 2.0 | 3.0 | 0.00 | 0.00 | 0.00 | 77 | 1015.0 |
| 20260503052206 | 57 | 284 | 2.0 | 3.0 | 0.00 | 0.00 | 0.00 | 78 | 1015.0 |
| 20260503051704 | 57 | 284 | 2.0 | 3.0 | 0.00 | 0.00 | 0.00 | 78 | 1014.9 |
| 20260503051203 | 58 | 241 | 0.0 | 2.0 | 0.00 | 0.00 | 0.00 | 76 | 1015.0 |
| 20260503050706 | 58 | 241 | 2.0 | 3.0 | 0.00 | 0.00 | 0.00 | 76 | 1014.9 |
| 20260503050205 | 58 | 296 | 3.0 | 3.0 | 0.00 | 0.00 | 0.00 | 75 | 1014.9 |
| 20260503045705 | 59 | 249 | 2.0 | 3.0 | 0.00 | 0.00 | 0.00 | 74 | 1014.8 |
| 20260503044705 | 60 | 239 | 2.0 | 3.0 | 0.00 | 0.00 | 0.00 | 72 | 1014.8 |
| 20260503044204 | 60 | 210 | 2.0 | 3.0 | 0.00 | 0.00 | 0.00 | 72 | 1014.8 |